Flag for U.S.A. Weather past 2 weeks in Provo, Utah, U.S.A.

Now
52 °F

Partly cloudy.


Feels Like: 51 °F
Forecast: 47 / 61 °F
Wind: 3 mph from South

Location: Provo Municipal

Current Time: May 23, 2015 at 2:52:37 AM

Latest Report: May 23, 2015 at 2:15 AM


Visibility: 10 mi

Pressure: 29.94 "Hg

Humidity: 72%

Dew point: 43 °F

Location of ProvoLocation

Historic Weather in Provo — Graph

°F

Provo temperature yesterday

Maximum temperature yesterday: 63 °F (at 1:59 PM)
Minimum temperature yesterday: 45 °F (at 3:35 AM)
Average temperature yesterday: 51 °F

Past Weeks' High & Low Weather Summary

 TemperatureHumidityPressure
High77 °F (May 12, 1:55 PM)93% (May 17, 1:35 AM)30.12 "Hg (May 17, 1:35 AM)
Low37 °F (May 11, 4:15 AM)19% (May 12, 1:55 PM)29.74 "Hg (May 14, 2:50 PM)
Average52 °F64%29.94 "Hg
* Reported May 8 1:15 AM — May 23 1:55 AM, Provo, Weather by CustomWeather, © 2015

Note: Actual official high and low records may vary slightly from our data, if they occured in-between our weather recording intervals... More about our weather records

Advertising

Provo weather history for previous 24 hours

 ConditionsComfort  
Time TempWeatherWind HumidityBarometerVisibility
1:55 AM
Sat, May 23
52 °FMostly cloudy.3 mph72%29.94 "Hg10 mi
1:35 AM52 °FMostly cloudy.6 mph72%29.94 "Hg10 mi
1:15 AM52 °FOvercast.8 mph72%29.94 "Hg10 mi
12:55 AM52 °FOvercast.7 mph72%29.94 "Hg10 mi
12:35 AM52 °FPassing clouds.8 mph72%29.94 "Hg10 mi
12:15 AM52 °FPartly cloudy.6 mph72%29.93 "Hg10 mi
11:55 PM
Fri, May 22
52 °FPassing clouds.3 mph72%29.93 "Hg10 mi
11:35 PM52 °FMostly cloudy.10 mph77%29.93 "Hg10 mi
11:15 PM52 °FPassing clouds.5 mph72%29.92 "Hg10 mi
10:55 PM54 °FPassing clouds.3 mph67%29.92 "Hg10 mi
10:35 PM52 °FPassing clouds.5 mph72%29.92 "Hg10 mi
10:15 PM54 °FPassing clouds.8 mph67%29.91 "Hg10 mi
9:35 PM54 °FSunny.3 mph67%29.91 "Hg10 mi
7:47 PM59 °FBroken clouds.9 mph51%29.90 "Hg15 mi
6:58 PM61 °FBroken clouds.No wind45%29.89 "Hg15 mi
5:52 PM61 °FBroken clouds.7 mph45%29.88 "Hg15 mi
4:47 PM61 °FMore clouds than sun.8 mph45%29.88 "Hg15 mi
3:59 PM57 °FScattered showers. More clouds than sun.No wind44%29.90 "Hg15 mi
2:52 PM61 °FMore clouds than sun.No wind45%29.91 "Hg15 mi
1:59 PM63 °FMore clouds than sun.7 mph42%29.91 "Hg15 mi
12:52 PM61 °FMore clouds than sun.7 mph52%29.92 "Hg15 mi
11:54 AM57 °FMore clouds than sun.No wind55%29.93 "Hg15 mi
10:55 AM55 °FMostly cloudy.5 mph63%29.94 "Hg15 mi
9:49 AM55 °FPartly sunny.No wind63%29.94 "Hg15 mi
8:59 AM54 °FScattered showers. Partly sunny.5 mph63%29.94 "Hg15 mi
7:47 AM48 °FScattered showers. Partly sunny.8 mph76%29.94 "Hg15 mi
6:55 AM46 °FScattered showers. Partly cloudy.No wind76%29.93 "Hg15 mi
6:35 AM46 °FPassing clouds.3 mph76%29.92 "Hg10 mi
6:15 AM46 °FPassing clouds.No wind76%29.92 "Hg10 mi
5:55 AM46 °FOvercast.No wind76%29.92 "Hg10 mi
5:35 AM46 °FPassing clouds.3 mph76%29.92 "Hg10 mi
4:55 AM45 °FPassing clouds.No wind76%29.92 "Hg10 mi
4:35 AM45 °FPassing clouds.No wind76%29.93 "Hg10 mi
4:15 AM45 °FClear.No wind81%29.92 "Hg10 mi
3:55 AM45 °FClear.No wind76%29.92 "Hg10 mi
3:35 AM45 °FClear.5 mph76%29.92 "Hg10 mi
3:15 AM46 °FClear.7 mph76%29.92 "Hg10 mi
2:55 AM46 °FClear.3 mph76%29.93 "Hg10 mi
2:35 AM48 °FPassing clouds.5 mph76%29.92 "Hg10 mi
2:15 AM48 °FOvercast.7 mph71%29.92 "Hg10 mi
Weather by CustomWeather, © 2015

See weather overviewHow to use our weather pages